Weather History for KGHG - November, 2013

Change the Weather History Date:

Tuesday, November 5, 2013

  Actual Average (KPYM) Record (KPYM)
Temperature  
Mean Temperature 40 °F -  
Max Temperature 48 °F 58 °F 77 °F (1961)
Min Temperature 32 °F 39 °F 23 °F (2006)
Degree Days  
Heating Degree Days 25    
Moisture  
Dew Point 31 °F    
Average Humidity 74    
Maximum Humidity 93    
Minimum Humidity 53    
Precipitation  
Precipitation 0.00 in - - ()
Sea Level Pressure  
Sea Level Pressure 30.65 in    
Wind  
Wind Speed 4 mph (SSW)    
Max Wind Speed 10 mph    
Max Gust Speed -    
Visibility 10 miles    
Events      
Averages and records for this station are not official NWS values.
T = Trace of Precipitation, MM = Missing Value Source: NWS Daily Summary

Daily Weather History Graph

Daily Weather History Graph

Search for Another Location

Airport or City:

Trip Planner

Search our weather history database for the weather conditions in past years. The results will help you decide how hot, cold, wet, or windy it might be!

Date:

Astronomy

Nov. 05, 2013 Rise Set
Actual Time 6:20 AM EST 4:31 PM EST
Civil Twilight 5:51 AM EST 5:00 PM EST
Nautical Twilight 5:18 AM EST 5:33 PM EST
Astronomical Twilight 4:45 AM EST 6:06 PM EST
Moon 8:33 AM EST (11/5) 6:28 PM EST (11/5)
Length of Visible Light 11h 09m
Length of Day
10h 10m
Waxing Crescent, 6% of the Moon is Illuminated
Nov 5
Waxing Crescent
Nov 10
First Quarter
Nov 17
Full
Nov 25
Last Quarter
Dec 2
New

Hourly Weather History & Observations

Time (EST) Temp. Windchill Dew Point Humidity Pressure Visibility Wind Dir Wind Speed Gust Speed Precip Events Conditions
12:15 AM 32.0 °F 27.5 °F 26.6 °F 80% 30.71 in 10.0 mi West 4.6 mph - N/A   Overcast
12:35 AM 32.0 °F 27.5 °F 26.6 °F 80% 30.71 in 10.0 mi WSW 4.6 mph - N/A   Overcast
12:55 AM 32.0 °F 27.5 °F 26.6 °F 80% 30.71 in 10.0 mi WSW 4.6 mph - N/A   Overcast
1:15 AM 32.0 °F 28.7 °F 28.4 °F 87% 30.71 in 10.0 mi WSW 3.5 mph - N/A   Overcast
1:35 AM 32.0 °F - 28.4 °F 87% 30.71 in 10.0 mi Calm Calm - N/A   Overcast
1:55 AM 32.0 °F - 28.4 °F 87% 30.70 in 10.0 mi Calm Calm - N/A   Overcast
2:15 AM 32.0 °F - 28.4 °F 87% 30.70 in 10.0 mi Calm Calm - N/A   Mostly Cloudy
2:35 AM 32.0 °F 27.5 °F 26.6 °F 80% 30.70 in 10.0 mi West 4.6 mph - N/A   Scattered Clouds
2:55 AM 32.0 °F 26.4 °F 26.6 °F 80% 30.70 in 10.0 mi West 5.8 mph - N/A   Mostly Cloudy
3:15 AM 32.0 °F 26.4 °F 26.6 °F 80% 30.70 in 10.0 mi WSW 5.8 mph - N/A   Mostly Cloudy
3:35 AM 33.8 °F 29.6 °F 26.6 °F 75% 30.71 in 10.0 mi West 4.6 mph - N/A   Overcast
3:55 AM 33.8 °F 30.8 °F 28.4 °F 81% 30.71 in 10.0 mi West 3.5 mph - N/A   Overcast
4:15 AM 33.8 °F - 28.4 °F 81% 30.70 in 10.0 mi Calm Calm - N/A   Overcast
4:35 AM 32.0 °F - 28.4 °F 87% 30.70 in 10.0 mi Calm Calm - N/A   Mostly Cloudy
4:55 AM 32.0 °F 28.7 °F 26.6 °F 80% 30.69 in 10.0 mi West 3.5 mph - N/A   Partly Cloudy
5:15 AM 32.0 °F 28.7 °F 26.6 °F 80% 30.70 in 10.0 mi SW 3.5 mph - N/A   Partly Cloudy
5:35 AM 32.0 °F 27.5 °F 26.6 °F 80% 30.70 in 10.0 mi WSW 4.6 mph - N/A   Mostly Cloudy
5:55 AM 32.0 °F 27.5 °F 26.6 °F 80% 30.71 in 10.0 mi WSW 4.6 mph - N/A   Overcast
6:15 AM 32.0 °F - 26.6 °F 80% 30.71 in 10.0 mi Calm Calm - N/A   Overcast
6:35 AM 32.0 °F 26.4 °F 28.4 °F 87% 30.71 in 10.0 mi WSW 5.8 mph - N/A   Overcast
6:55 AM 33.8 °F 29.6 °F 28.4 °F 81% 30.71 in 10.0 mi West 4.6 mph - N/A   Mostly Cloudy
7:15 AM 35.6 °F - 28.4 °F 75% 30.72 in 10.0 mi Calm Calm - N/A   Mostly Cloudy
7:35 AM 37.4 °F - 30.2 °F 75% 30.72 in 10.0 mi Calm Calm - N/A   Overcast
7:55 AM 39.2 °F - 30.2 °F 70% 30.72 in 10.0 mi Calm Calm - N/A   Scattered Clouds
8:15 AM 39.2 °F 37.0 °F 30.2 °F 70% 30.72 in 10.0 mi West 3.5 mph - N/A   Clear
8:35 AM 41.0 °F 39.0 °F 28.4 °F 61% 30.72 in 10.0 mi West 3.5 mph - N/A   Partly Cloudy
8:55 AM 42.8 °F 39.3 °F 28.4 °F 57% 30.72 in 10.0 mi West 5.8 mph - N/A   Mostly Cloudy
9:15 AM 42.8 °F 41.1 °F 28.4 °F 57% 30.72 in 10.0 mi SW 3.5 mph - N/A   Overcast
9:35 AM 42.8 °F 40.1 °F 30.2 °F 61% 30.73 in 10.0 mi West 4.6 mph - N/A   Overcast
9:55 AM 44.6 °F 41.4 °F 30.2 °F 57% 30.72 in 10.0 mi WSW 5.8 mph - N/A   Mostly Cloudy
10:15 AM 46.4 °F - 30.2 °F 53% 30.71 in 10.0 mi Calm Calm - N/A   Partly Cloudy
10:35 AM 46.4 °F 42.9 °F 32.0 °F 57% 30.70 in 10.0 mi ESE 6.9 mph - N/A   Clear
10:55 AM 46.4 °F 44.3 °F 32.0 °F 57% 30.70 in 10.0 mi SE 4.6 mph - N/A   Clear
11:15 AM 46.4 °F 42.9 °F 32.0 °F 57% 30.69 in 10.0 mi East 6.9 mph - N/A   Clear
11:35 AM 46.4 °F 41.9 °F 32.0 °F 57% 30.67 in 10.0 mi SE 9.2 mph - N/A   Clear
11:55 AM 46.4 °F 42.4 °F 32.0 °F 57% 30.67 in 10.0 mi ESE 8.1 mph - N/A   Clear
12:15 PM 48.2 °F - 32.0 °F 54% 30.66 in 10.0 mi East 9.2 mph - N/A   Clear
12:35 PM 46.4 °F 41.9 °F 32.0 °F 57% 30.66 in 10.0 mi East 9.2 mph - N/A   Clear
12:55 PM 46.4 °F 41.9 °F 32.0 °F 57% 30.65 in 10.0 mi ESE 9.2 mph - N/A   Clear
1:15 PM 46.4 °F 41.5 °F 32.0 °F 57% 30.65 in 10.0 mi East 10.4 mph - N/A   Clear
1:35 PM 48.2 °F - 32.0 °F 54% 30.64 in 10.0 mi East 10.4 mph - N/A   Clear
1:55 PM 48.2 °F - 33.8 °F 58% 30.63 in 10.0 mi ESE 9.2 mph - N/A   Clear
2:15 PM 48.2 °F - 33.8 °F 58% 30.63 in 10.0 mi ESE 9.2 mph - N/A   Clear
2:35 PM 48.2 °F - 33.8 °F 58% 30.62 in 10.0 mi ESE 9.2 mph - N/A   Clear
2:55 PM 48.2 °F - 33.8 °F 58% 30.62 in 10.0 mi SE 10.4 mph - N/A   Clear
3:15 PM 46.4 °F 41.5 °F 33.8 °F 62% 30.61 in 10.0 mi SE 10.4 mph - N/A   Clear
3:35 PM 46.4 °F 42.4 °F 33.8 °F 62% 30.61 in 10.0 mi ESE 8.1 mph - N/A   Clear
3:55 PM 46.4 °F 43.5 °F 33.8 °F 62% 30.61 in 10.0 mi SE 5.8 mph - N/A   Clear
4:15 PM 46.4 °F 43.5 °F 35.6 °F 66% 30.60 in 10.0 mi SE 5.8 mph - N/A   Clear
4:35 PM 44.6 °F 41.4 °F 35.6 °F 71% 30.59 in 10.0 mi SE 5.8 mph - N/A   Clear
4:55 PM 44.6 °F 41.4 °F 35.6 °F 71% 30.59 in 10.0 mi SSE 5.8 mph - N/A   Clear
5:15 PM 44.6 °F 42.2 °F 35.6 °F 71% 30.60 in 10.0 mi SSE 4.6 mph - N/A   Clear
5:35 PM 44.6 °F 42.2 °F 35.6 °F 71% 30.60 in 10.0 mi SE 4.6 mph - N/A   Clear
5:55 PM 42.8 °F - 33.8 °F 70% 30.60 in 10.0 mi Calm Calm - N/A   Clear
6:15 PM 42.8 °F 41.1 °F 33.8 °F 70% 30.60 in 10.0 mi South 3.5 mph - N/A   Clear
6:35 PM 39.2 °F 37.0 °F 33.8 °F 81% 30.60 in 10.0 mi SSW 3.5 mph - N/A   Clear
6:55 PM 39.2 °F 37.0 °F 33.8 °F 81% 30.61 in 10.0 mi SSW 3.5 mph - N/A   Clear
7:15 PM 37.4 °F 34.9 °F 33.8 °F 87% 30.60 in 10.0 mi SSW 3.5 mph - N/A   Clear
7:35 PM 37.4 °F 34.9 °F 33.8 °F 87% 30.60 in 10.0 mi SSW 3.5 mph - N/A   Clear
7:55 PM 39.2 °F - 33.8 °F 81% 30.59 in 10.0 mi Calm Calm - N/A   Clear
8:15 PM 39.2 °F 37.0 °F 33.8 °F 81% 30.59 in 10.0 mi SW 3.5 mph - N/A   Clear
8:35 PM 37.4 °F 34.9 °F 33.8 °F 87% 30.59 in 10.0 mi SW 3.5 mph - N/A   Clear
8:55 PM 35.6 °F 32.8 °F 33.8 °F 93% 30.59 in 10.0 mi SSW 3.5 mph - N/A   Clear
9:15 PM 37.4 °F 34.9 °F 33.8 °F 87% 30.59 in 10.0 mi SW 3.5 mph - N/A   Clear
9:35 PM 35.6 °F 32.8 °F 33.8 °F 93% 30.59 in 10.0 mi WSW 3.5 mph - N/A   Clear
9:55 PM 35.6 °F - 33.8 °F 93% 30.57 in 10.0 mi Calm Calm - N/A   Clear
10:15 PM 37.4 °F 34.9 °F 33.8 °F 87% 30.57 in 10.0 mi SSW 3.5 mph - N/A   Clear
10:35 PM 39.2 °F 35.9 °F 35.6 °F 87% 30.56 in 10.0 mi SSW 4.6 mph - N/A   Clear
10:55 PM 39.2 °F 35.9 °F 35.6 °F 87% 30.56 in 10.0 mi SW 4.6 mph - N/A   Clear
11:15 PM 39.2 °F 37.0 °F 35.6 °F 87% 30.56 in 10.0 mi SW 3.5 mph - N/A   Clear
11:35 PM 37.4 °F 34.9 °F 33.8 °F 87% 30.55 in 10.0 mi SW 3.5 mph - N/A   Clear
11:55 PM 37.4 °F - 33.8 °F 87% 30.55 in 10.0 mi Calm Calm - N/A   Clear